| time (UTC) | temp F | wind direction | speed MPH | gust MPH | rain 1hr in | rain 24hr in | rain mn in | humidity % | barometer mb |
| 20260903190430 | 88 | 49 | 8.0 | 19.0 | 0.00 | 0.00 | 0.00 | 68 | 1013.8 |
| 20260903185730 | 87 | 47 | 14.0 | 19.0 | 0.00 | 0.00 | 0.00 | 69 | 1013.8 |
| 20260903185031 | 87 | 69 | 8.0 | 19.0 | 0.00 | 0.00 | 0.00 | 69 | 1013.8 |
| 20260903183630 | 86 | 73 | 11.0 | 14.0 | 0.00 | 0.00 | 0.00 | 70 | 1014.1 |
| 20260903182931 | 85 | 70 | 2.0 | 14.0 | 0.00 | 0.00 | 0.00 | 71 | 1014.5 |
| 20260903182230 | 85 | 59 | 5.0 | 14.0 | 0.00 | 0.00 | 0.00 | 71 | 1014.8 |
| 20260903180830 | 85 | 49 | 5.0 | 14.0 | 0.00 | 0.00 | 0.00 | 71 | 1014.8 |
| 20260903180130 | 85 | 62 | 2.0 | 14.0 | 0.00 | 0.00 | 0.00 | 72 | 1014.8 |
| 20260903175430 | 84 | 59 | 5.0 | 14.0 | 0.00 | 0.00 | 0.00 | 72 | 1014.8 |
| 20260903174733 | 84 | 310 | 8.0 | 14.0 | 0.00 | 0.00 | 0.00 | 72 | 1014.8 |
| 20260903174030 | 84 | 68 | 5.0 | 14.0 | 0.00 | 0.00 | 0.00 | 73 | 1015.1 |
| 20260903173331 | 84 | 68 | 8.0 | 14.0 | 0.00 | 0.00 | 0.00 | 72 | 1014.8 |
| 20260903172630 | 84 | 327 | 8.0 | 14.0 | 0.00 | 0.00 | 0.00 | 73 | 1014.8 |
| 20260903171230 | 84 | 79 | 17.0 | 14.0 | 0.00 | 0.00 | 0.00 | 73 | 1015.1 |
| 20260903170530 | 84 | 66 | 11.0 | 14.0 | 0.00 | 0.00 | 0.00 | 74 | 1015.1 |
| 20260903165830 | 84 | 88 | 5.0 | 14.0 | 0.00 | 0.00 | 0.00 | 74 | 1014.8 |
| 20260903165130 | 85 | 84 | 11.0 | 14.0 | 0.00 | 0.00 | 0.00 | 74 | 1014.8 |
| 20260903164431 | 85 | 66 | 2.0 | 14.0 | 0.00 | 0.00 | 0.00 | 75 | 1015.1 |
| 20260903163730 | 84 | 61 | 2.0 | 14.0 | 0.00 | 0.00 | 0.00 | 76 | 1014.8 |
| 20260903163030 | 84 | 17 | 8.0 | 14.0 | 0.00 | 0.00 | 0.00 | 76 | 1014.8 |
| 20260903162330 | 83 | 96 | 2.0 | 14.0 | 0.00 | 0.00 | 0.00 | 77 | 1015.1 |
| 20260903161630 | 83 | 59 | 8.0 | 12.0 | 0.00 | 0.00 | 0.00 | 77 | 1014.8 |
| 20260903160930 | 82 | 78 | 5.0 | 12.0 | 0.00 | 0.00 | 0.00 | 78 | 1014.8 |
| 20260903160233 | 82 | 60 | 0.0 | 12.0 | 0.00 | 0.00 | 0.00 | 78 | 1014.8 |
| 20260903155533 | 82 | 58 | 2.0 | 12.0 | 0.00 | 0.00 | 0.00 | 79 | 1014.8 |
| 20260903154833 | 82 | 89 | 5.0 | 12.0 | 0.00 | 0.00 | 0.00 | 78 | 1014.8 |
| 20260903152734 | 82 | 77 | 5.0 | 12.0 | 0.00 | 0.00 | 0.00 | 79 | 1014.5 |
| 20260903152033 | 82 | 56 | 5.0 | 10.0 | 0.00 | 0.00 | 0.00 | 79 | 1014.8 |
| 20260903151333 | 82 | 64 | 2.0 | 10.0 | 0.00 | 0.00 | 0.00 | 79 | 1014.8 |
| 20260903145933 | 81 | 61 | 2.0 | 10.0 | 0.00 | 0.00 | 0.00 | 79 | 1014.8 |
| 20260903145233 | 81 | 70 | 8.0 | 10.0 | 0.00 | 0.00 | 0.00 | 80 | 1014.8 |
| 20260903144533 | 81 | 75 | 14.0 | 10.0 | 0.00 | 0.00 | 0.00 | 80 | 1014.8 |
| 20260903143833 | 80 | 60 | 5.0 | 10.0 | 0.00 | 0.00 | 0.00 | 80 | 1014.8 |
| 20260903143133 | 80 | 54 | 5.0 | 10.0 | 0.00 | 0.00 | 0.00 | 80 | 1014.8 |
| 20260903142433 | 80 | 53 | 5.0 | 10.0 | 0.00 | 0.00 | 0.00 | 80 | 1014.8 |
| 20260903141733 | 80 | 70 | 5.0 | 10.0 | 0.00 | 0.00 | 0.00 | 80 | 1014.8 |
| 20260903135633 | 79 | 60 | 0.0 | 10.0 | 0.00 | 0.00 | 0.00 | 80 | 1015.1 |
| 20260903134933 | 79 | 62 | 2.0 | 10.0 | 0.00 | 0.00 | 0.00 | 80 | 1015.1 |
| 20260903134233 | 79 | 108 | 11.0 | 10.0 | 0.00 | 0.00 | 0.00 | 80 | 1015.1 |
| 20260903133532 | 79 | 81 | 11.0 | 10.0 | 0.00 | 0.00 | 0.00 | 80 | 1014.8 |
| 20260903132833 | 79 | 61 | 0.0 | 10.0 | 0.00 | 0.00 | 0.00 | 80 | 1014.5 |
| 20260903132132 | 79 | 107 | 8.0 | 10.0 | 0.00 | 0.00 | 0.00 | 80 | 1014.5 |
| 20260903131433 | 79 | 64 | 2.0 | 10.0 | 0.00 | 0.00 | 0.00 | 80 | 1014.5 |
| 20260903130732 | 79 | 82 | 2.0 | 10.0 | 0.00 | 0.00 | 0.00 | 80 | 1014.5 |
| 20260903124833 | 79 | 61 | 0.0 | 10.0 | 0.00 | 0.00 | 0.00 | 79 | 1014.5 |
| 20260903123433 | 79 | 59 | 2.0 | 10.0 | 0.00 | 0.00 | 0.00 | 79 | 1014.5 |
| 20260903122733 | 79 | 113 | 8.0 | 10.0 | 0.00 | 0.00 | 0.00 | 79 | 1014.1 |
| 20260903122033 | 79 | 74 | 11.0 | 8.0 | 0.00 | 0.00 | 0.00 | 78 | 1014.1 |
| 20260903121333 | 79 | 71 | 5.0 | 6.0 | 0.00 | 0.00 | 0.00 | 79 | 1014.5 |
| 20260903120633 | 79 | 98 | 5.0 | 6.0 | 0.00 | 0.00 | 0.00 | 78 | 1014.5 |
| 20260903115933 | 78 | 111 | 5.0 | 6.0 | 0.00 | 0.00 | 0.00 | 78 | 1014.5 |
| 20260903115237 | 79 | 81 | 8.0 | 6.0 | 0.00 | 0.00 | 0.00 | 78 | 1014.1 |
| 20260903114533 | 79 | 97 | 5.0 | 8.0 | 0.00 | 0.00 | 0.00 | 78 | 1014.1 |
| 20260903113835 | 79 | 63 | 0.0 | 8.0 | 0.00 | 0.00 | 0.00 | 78 | 1014.1 |
| 20260903113134 | 79 | 60 | 0.0 | 8.0 | 0.00 | 0.00 | 0.00 | 77 | 1014.1 |
| 20260903112432 | 79 | 62 | 8.0 | 8.0 | 0.00 | 0.00 | 0.00 | 77 | 1014.1 |
| 20260903111733 | 79 | 59 | 0.0 | 8.0 | 0.00 | 0.00 | 0.00 | 77 | 1014.1 |
| 20260903111032 | 79 | 62 | 0.0 | 8.0 | 0.00 | 0.00 | 0.00 | 77 | 1014.5 |
| 20260903110333 | 79 | 79 | 5.0 | 8.0 | 0.00 | 0.00 | 0.00 | 76 | 1014.1 |
| 20260903105633 | 79 | 59 | 0.0 | 8.0 | 0.00 | 0.00 | 0.00 | 77 | 1014.1 |
| 20260903104932 | 79 | 62 | 2.0 | 8.0 | 0.00 | 0.00 | 0.00 | 76 | 1014.1 |
| 20260903103532 | 79 | 77 | 5.0 | 8.0 | 0.00 | 0.00 | 0.00 | 75 | 1013.8 |
| 20260903102132 | 80 | 65 | 0.0 | 8.0 | 0.00 | 0.00 | 0.00 | 74 | 1013.5 |
| 20260903101433 | 80 | 103 | 8.0 | 6.0 | 0.00 | 0.00 | 0.00 | 73 | 1013.8 |
| 20260903100732 | 80 | 78 | 0.0 | 4.0 | 0.00 | 0.00 | 0.00 | 73 | 1013.8 |
| 20260903095333 | 80 | 59 | 0.0 | 4.0 | 0.00 | 0.00 | 0.00 | 73 | 1013.8 |
| 20260903094632 | 80 | 60 | 0.0 | 2.0 | 0.00 | 0.00 | 0.00 | 73 | 1013.8 |
| 20260903093932 | 80 | 59 | 0.0 | 6.0 | 0.00 | 0.00 | 0.00 | 73 | 1013.8 |
| 20260903093233 | 80 | 59 | 0.0 | 6.0 | 0.00 | 0.00 | 0.00 | 73 | 1013.8 |
| 20260903092532 | 80 | 59 | 0.0 | 6.0 | 0.00 | 0.00 | 0.00 | 73 | 1014.1 |
| 20260903091132 | 80 | 56 | 0.0 | 6.0 | 0.00 | 0.00 | 0.00 | 73 | 1013.8 |
| 20260903090432 | 80 | 60 | 0.0 | 6.0 | 0.00 | 0.00 | 0.00 | 73 | 1013.8 |
| 20260903085032 | 80 | 56 | 0.0 | 6.0 | 0.00 | 0.00 | 0.00 | 73 | 1013.5 |
| 20260903084332 | 80 | 60 | 0.0 | 6.0 | 0.00 | 0.00 | 0.00 | 74 | 1013.8 |
| 20260903083632 | 80 | 59 | 2.0 | 4.0 | 0.00 | 0.00 | 0.00 | 74 | 1013.8 |
| 20260903082932 | 80 | 76 | 2.0 | 4.0 | 0.00 | 0.00 | 0.00 | 74 | 1013.5 |
| 20260903082232 | 80 | 62 | 5.0 | 4.0 | 0.00 | 0.00 | 0.00 | 74 | 1013.8 |
| 20260903081532 | 80 | 55 | 0.0 | 4.0 | 0.00 | 0.00 | 0.00 | 74 | 1013.8 |
| 20260903080832 | 80 | 59 | 0.0 | 4.0 | 0.00 | 0.00 | 0.00 | 74 | 1013.8 |
| 20260903080132 | 80 | 65 | 0.0 | 4.0 | 0.00 | 0.00 | 0.00 | 74 | 1013.8 |
| 20260903075432 | 80 | 65 | 0.0 | 4.0 | 0.00 | 0.00 | 0.00 | 74 | 1013.8 |
| 20260903074733 | 80 | 61 | 0.0 | 4.0 | 0.00 | 0.00 | 0.00 | 74 | 1013.5 |
| 20260903074032 | 79 | 59 | 0.0 | 4.0 | 0.00 | 0.00 | 0.00 | 74 | 1013.5 |
| 20260903073332 | 80 | 59 | 0.0 | 4.0 | 0.00 | 0.00 | 0.00 | 75 | 1013.8 |
| 20260903072632 | 80 | 66 | 0.0 | 4.0 | 0.00 | 0.00 | 0.00 | 74 | 1013.5 |
| 20260903071933 | 79 | 65 | 0.0 | 4.0 | 0.00 | 0.00 | 0.00 | 75 | 1013.8 |
| 20260903070532 | 79 | 61 | 0.0 | 4.0 | 0.00 | 0.00 | 0.00 | 74 | 1013.8 |
| 20260903065832 | 79 | 59 | 0.0 | 4.0 | 0.00 | 0.00 | 0.00 | 74 | 1013.8 |
| 20260903065132 | 79 | 61 | 0.0 | 4.0 | 0.00 | 0.00 | 0.00 | 74 | 1013.8 |
| 20260903064432 | 79 | 59 | 0.0 | 8.0 | 0.00 | 0.00 | 0.00 | 75 | 1013.8 |
| 20260903063732 | 79 | 78 | 5.0 | 10.0 | 0.00 | 0.00 | 0.00 | 73 | 1014.1 |
| 20260903062332 | 79 | 65 | 0.0 | 10.0 | 0.00 | 0.00 | 0.00 | 73 | 1013.8 |
| 20260903061632 | 79 | 60 | 2.0 | 10.0 | 0.00 | 0.00 | 0.00 | 72 | 1014.1 |
| 20260903060932 | 80 | 62 | 0.0 | 10.0 | 0.00 | 0.00 | 0.00 | 72 | 1013.8 |
| 20260903060232 | 80 | 81 | 5.0 | 10.0 | 0.00 | 0.00 | 0.00 | 71 | 1014.1 |
| 20260903055532 | 80 | 62 | 8.0 | 10.0 | 0.00 | 0.00 | 0.00 | 71 | 1014.1 |
| 20260903054832 | 80 | 70 | 5.0 | 10.0 | 0.00 | 0.00 | 0.00 | 72 | 1014.1 |
| 20260903053433 | 81 | 69 | 2.0 | 10.0 | 0.00 | 0.00 | 0.00 | 71 | 1014.5 |
| 20260903052732 | 81 | 78 | 5.0 | 10.0 | 0.00 | 0.00 | 0.00 | 69 | 1014.1 |
| 20260903051332 | 81 | 67 | 5.0 | 12.0 | 0.00 | 0.00 | 0.00 | 68 | 1014.1 |
| 20260903045932 | 82 | 65 | 5.0 | 12.0 | 0.00 | 0.00 | 0.00 | 66 | 1014.1 |
| 20260903045232 | 82 | 120 | 5.0 | 12.0 | 0.00 | 0.00 | 0.00 | 66 | 1014.5 |
| 20260903044532 | 82 | 97 | 14.0 | 12.0 | 0.00 | 0.00 | 0.00 | 65 | 1014.1 |
| 20260903043832 | 82 | 58 | 2.0 | 12.0 | 0.00 | 0.00 | 0.00 | 65 | 1014.1 |
| 20260903043132 | 83 | 65 | 5.0 | 12.0 | 0.00 | 0.00 | 0.00 | 65 | 1014.1 |
| 20260903042432 | 83 | 102 | 11.0 | 10.0 | 0.00 | 0.00 | 0.00 | 63 | 1014.1 |
| 20260903041732 | 83 | 59 | 2.0 | 10.0 | 0.00 | 0.00 | 0.00 | 63 | 1014.1 |
| 20260903035632 | 84 | 67 | 8.0 | 10.0 | 0.00 | 0.00 | 0.00 | 61 | 1014.5 |
| 20260903034932 | 84 | 62 | 5.0 | 10.0 | 0.00 | 0.00 | 0.00 | 61 | 1014.1 |
| 20260903034231 | 84 | 95 | 5.0 | 10.0 | 0.00 | 0.00 | 0.00 | 60 | 1014.1 |
| 20260903033531 | 85 | 58 | 2.0 | 12.0 | 0.00 | 0.00 | 0.00 | 59 | 1014.5 |
| 20260903032832 | 85 | 62 | 5.0 | 12.0 | 0.00 | 0.00 | 0.00 | 60 | 1014.1 |
| 20260903032131 | 85 | 65 | 5.0 | 12.0 | 0.00 | 0.00 | 0.00 | 59 | 1014.1 |
| 20260903031432 | 85 | 113 | 8.0 | 12.0 | 0.00 | 0.00 | 0.00 | 58 | 1014.1 |
| 20260903030731 | 86 | 63 | 5.0 | 12.0 | 0.00 | 0.00 | 0.00 | 57 | 1014.1 |
| 20260903025331 | 86 | 55 | 14.0 | 12.0 | 0.00 | 0.00 | 0.00 | 57 | 1014.1 |
| 20260903024633 | 87 | 94 | 14.0 | 12.0 | 0.00 | 0.00 | 0.00 | 56 | 1014.1 |
| 20260903023931 | 87 | 71 | 8.0 | 12.0 | 0.00 | 0.00 | 0.00 | 56 | 1014.1 |
| 20260903023232 | 87 | 114 | 8.0 | 12.0 | 0.00 | 0.00 | 0.00 | 55 | 1014.1 |
| 20260903022532 | 88 | 67 | 5.0 | 12.0 | 0.00 | 0.00 | 0.00 | 54 | 1013.8 |
| 20260903021834 | 88 | 141 | 14.0 | 14.0 | 0.00 | 0.00 | 0.00 | 54 | 1013.8 |
| 20260903021132 | 88 | 118 | 8.0 | 14.0 | 0.00 | 0.00 | 0.00 | 54 | 1013.5 |
| 20260903020432 | 89 | 59 | 5.0 | 14.0 | 0.00 | 0.00 | 0.00 | 53 | 1013.5 |
| 20260903015032 | 89 | 101 | 5.0 | 14.0 | 0.00 | 0.00 | 0.00 | 52 | 1013.5 |
| 20260903014331 | 90 | 92 | 5.0 | 14.0 | 0.00 | 0.00 | 0.00 | 51 | 1013.1 |
| 20260903013631 | 90 | 91 | 8.0 | 14.0 | 0.00 | 0.00 | 0.00 | 51 | 1013.1 |
| 20260903012932 | 90 | 63 | 5.0 | 14.0 | 0.00 | 0.00 | 0.00 | 51 | 1013.1 |
| 20260903012231 | 90 | 62 | 5.0 | 10.0 | 0.00 | 0.00 | 0.00 | 51 | 1013.1 |
| 20260903011531 | 90 | 57 | 2.0 | 10.0 | 0.00 | 0.00 | 0.00 | 51 | 1012.8 |
| 20260903010831 | 90 | 72 | 2.0 | 10.0 | 0.00 | 0.00 | 0.00 | 51 | 1012.8 |
| 20260903010131 | 90 | 65 | 5.0 | 10.0 | 0.00 | 0.00 | 0.00 | 51 | 1012.4 |
| 20260903005431 | 91 | 68 | 5.0 | 8.0 | 0.00 | 0.00 | 0.00 | 53 | 1012.4 |
| 20260903004731 | 91 | 64 | 5.0 | 6.0 | 0.00 | 0.00 | 0.00 | 52 | 1012.4 |
| 20260903004031 | 91 | 62 | 0.0 | 6.0 | 0.00 | 0.00 | 0.00 | 52 | 1012.4 |
| 20260903003332 | 91 | 56 | 2.0 | 6.0 | 0.00 | 0.00 | 0.00 | 52 | 1012.4 |
| 20260903002631 | 91 | 72 | 5.0 | 6.0 | 0.00 | 0.00 | 0.00 | 51 | 1012.4 |
| 20260903001931 | 92 | 60 | 0.0 | 6.0 | 0.00 | 0.00 | 0.00 | 51 | 1012.4 |
| 20260903001231 | 92 | 62 | 0.0 | 6.0 | 0.00 | 0.00 | 0.00 | 50 | 1012.4 |
| 20260903000531 | 92 | 65 | 2.0 | 10.0 | 0.00 | 0.00 | 0.00 | 50 | 1012.4 |
| 20260902235831 | 92 | 63 | 5.0 | 12.0 | 0.00 | 0.00 | 0.00 | 51 | 1012.4 |
| 20260902235131 | 92 | 58 | 0.0 | 12.0 | 0.00 | 0.00 | 0.00 | 50 | 1012.4 |
| 20260902234431 | 92 | 67 | 2.0 | 17.0 | 0.00 | 0.00 | 0.00 | 50 | 1012.4 |
| 20260902233731 | 91 | 63 | 0.0 | 17.0 | 0.00 | 0.00 | 0.00 | 51 | 1012.1 |
| 20260902233031 | 91 | 57 | 0.0 | 17.0 | 0.00 | 0.00 | 0.00 | 51 | 1012.4 |
| 20260902232331 | 90 | 60 | 0.0 | 17.0 | 0.00 | 0.00 | 0.00 | 51 | 1012.4 |
| 20260902231631 | 90 | 40 | 5.0 | 17.0 | 0.00 | 0.00 | 0.00 | 51 | 1012.1 |
| 20260902230931 | 91 | 45 | 5.0 | 17.0 | 0.00 | 0.00 | 0.00 | 48 | 1012.4 |
| 20260902230231 | 94 | 63 | 11.0 | 17.0 | 0.00 | 0.00 | 0.00 | 44 | 1012.4 |
| 20260902225531 | 96 | 75 | 22.0 | 17.0 | 0.00 | 0.00 | 0.00 | 43 | 1012.4 |
| 20260902224831 | 98 | 84 | 14.0 | 12.0 | 0.00 | 0.00 | 0.00 | 42 | 1012.1 |
| 20260902224131 | 98 | 71 | 2.0 | 12.0 | 0.00 | 0.00 | 0.00 | 42 | 1012.1 |
| 20260902222731 | 98 | 73 | 5.0 | 12.0 | 0.00 | 0.00 | 0.00 | 40 | 1011.8 |
| 20260902222031 | 98 | 61 | 0.0 | 12.0 | 0.00 | 0.00 | 0.00 | 40 | 1012.1 |
| 20260902221331 | 99 | 67 | 0.0 | 12.0 | 0.00 | 0.00 | 0.00 | 40 | 1012.1 |
| 20260902220631 | 100 | 61 | 0.0 | 14.0 | 0.00 | 0.00 | 0.00 | 39 | 1012.1 |
| 20260902215931 | 101 | 104 | 8.0 | 14.0 | 0.00 | 0.00 | 0.00 | 39 | 1012.4 |
| 20260902215231 | 100 | 43 | 2.0 | 14.0 | 0.00 | 0.00 | 0.00 | 39 | 1012.1 |
| 20260902214531 | 101 | 103 | 11.0 | 14.0 | 0.00 | 0.00 | 0.00 | 38 | 1012.4 |
| 20260902213831 | 101 | 49 | 8.0 | 14.0 | 0.00 | 0.00 | 0.00 | 38 | 1012.4 |
| 20260902212431 | 102 | 57 | 2.0 | 14.0 | 0.00 | 0.00 | 0.00 | 38 | 1012.4 |
| 20260902211731 | 102 | 69 | 2.0 | 8.0 | 0.00 | 0.00 | 0.00 | 38 | 1012.4 |
| 20260902210331 | 105 | 61 | 2.0 | 8.0 | 0.00 | 0.00 | 0.00 | 37 | 1012.4 |
| 20260902204931 | 104 | 323 | 8.0 | 12.0 | 0.00 | 0.00 | 0.00 | 38 | 1012.8 |
| 20260902204231 | 104 | 336 | 8.0 | 12.0 | 0.00 | 0.00 | 0.00 | 38 | 1013.1 |
| 20260902202831 | 103 | 58 | 2.0 | 12.0 | 0.00 | 0.00 | 0.00 | 40 | 1012.8 |
| 20260902201431 | 100 | 55 | 0.0 | 12.0 | 0.00 | 0.00 | 0.00 | 41 | 1013.1 |
| 20260902200731 | 99 | 20 | 5.0 | 12.0 | 0.00 | 0.00 | 0.00 | 42 | 1013.5 |
| 20260902200031 | 98 | 61 | 11.0 | 10.0 | 0.00 | 0.00 | 0.00 | 42 | 1013.8 |
| 20260902195331 | 98 | 75 | 11.0 | 10.0 | 0.00 | 0.00 | 0.00 | 43 | 1013.8 |
| 20260902194631 | 98 | 50 | 5.0 | 8.0 | 0.00 | 0.00 | 0.00 | 44 | 1013.8 |
| 20260902193930 | 97 | 75 | 5.0 | 8.0 | 0.00 | 0.00 | 0.00 | 44 | 1013.8 |
| 20260902192531 | 98 | 57 | 5.0 | 8.0 | 0.00 | 0.00 | 0.00 | 44 | 1014.1 |
| 20260902191831 | 98 | 97 | 5.0 | 8.0 | 0.00 | 0.00 | 0.00 | 45 | 1014.5 |
| 20260902191130 | 97 | 79 | 8.0 | 8.0 | 0.00 | 0.00 | 0.00 | 45 | 1014.5 |